This is the latest recevied weather packets stored in our database for station/object WB0OCV. If no packets are shown the sender has not sent any weather packets the latest 10 day(s).
| Time | Temp. | Humidity | Pressure | Rain* | Wind** | Luminosity | Snow |
|---|---|---|---|---|---|---|---|
| 1777720218 | 8.33° C | 95% | 1015.2 hPa | 0 mm | - | 71 W/m² | - |
| 1777719915 | 8.33° C | 98% | 1015.1 hPa | 0 mm | - | 77 W/m² | - |
| 1777719613 | 7.78° C | 99% | 1015 hPa | 0 mm | - | 75 W/m² | - |
| 1777719310 | 7.78° C | 99% | 1015.2 hPa | 0 mm | - | 65 W/m² | - |
| 1777719008 | 7.22° C | 99% | 1015.2 hPa | 0 mm | - | 67 W/m² | - |
| 1777718705 | 6.67° C | 99% | 1015 hPa | 0 mm | - | 53 W/m² | - |
| 1777718402 | 6.11° C | 99% | 1015.1 hPa | 0 mm | - | 43 W/m² | - |
| 1777718099 | 5.56° C | 99% | 1015.1 hPa | 0 mm | - | 32 W/m² | - |
| 1777717796 | 5.56° C | 99% | 1015 hPa | 0 mm | - | 38 W/m² | - |
| 1777717493 | 5° C | 99% | 1015.3 hPa | 0 mm | - | 31 W/m² | - |
| 1777717190 | 5° C | 99% | 1015.3 hPa | 0 mm | - | 21 W/m² | - |
| 1777716889 | 5° C | 99% | 1015.3 hPa | 0 mm | - | 17 W/m² | - |
| 1777716587 | 4.44° C | 99% | 1015.3 hPa | 0 mm | - | 15 W/m² | - |
| 1777716285 | 4.44° C | 99% | 1015.2 hPa | 0 mm | - | 13 W/m² | - |
| 1777715983 | 4.44° C | 99% | 1015 hPa | 0 mm | - | 10 W/m² | - |
| 1777715680 | 4.44° C | 99% | 1015.2 hPa | 0 mm | - | 8 W/m² | - |
| 1777715378 | 4.44° C | 98% | 1015 hPa | 0 mm | - | 6 W/m² | - |
| 1777715075 | 4.44° C | 98% | 1015 hPa | 0 mm | - | 4 W/m² | - |
| 1777714773 | 5° C | 98% | 1015.1 hPa | 0 mm | - | 2 W/m² | - |
| 1777714472 | 5° C | 98% | 1014.9 hPa | 0 mm | - | 1 W/m² | - |
| 1777714168 | 5° C | 98% | 1015 hPa | 0 mm | - | 1 W/m² | - |
| 1777713866 | 5° C | 98% | 1014.7 hPa | 0 mm | - | 0 W/m² | - |
| 1777713564 | 5° C | 98% | 1014.5 hPa | 0 mm | - | 0 W/m² | - |
| 1777713260 | 5° C | 98% | 1014.4 hPa | 0 mm | - | 0 W/m² | - |
| 1777712957 | 5.56° C | 98% | 1014.6 hPa | 0 mm | - | 0 W/m² | - |
* Rain latest hour (hover to see other rain measurements)
** Current wind speed in m/s (hover to see current wind gust speed)